FW2760 Weather Reports


time (UTC)temp
C
wind
direction
speed
KPH
gust
KPH
rain 1hr
cm
rain 24hr
cm
rain mn
cm
humidity
%
barometer
mb
20260506184941 23 348 6.4 20.9 0.00 0.00 0.00 55 1012.1
20260506184441 23 314 6.4 16.1 0.00 0.00 0.00 56 1012.1
20260506183935 23 50 6.4 16.1 0.00 0.00 0.00 57 1012.0
20260506183431 23 59 6.4 12.9 0.00 0.00 0.00 57 1012.1
20260506183235 23 50 4.8 14.5 0.00 0.00 0.00 59 1012.2
20260506182947 23 305 4.8 14.5 0.00 0.00 0.00 58 1012.1
20260506181956 23 323 4.8 12.9 0.00 0.00 0.00 58 1012.0
20260506181948 23 336 4.8 12.9 0.00 0.00 0.00 59 1012.1
20260506180931 22 326 4.8 12.9 0.00 0.00 0.00 59 1011.9
20260506180430 22 51 4.8 12.9 0.00 0.00 0.00 59 1011.9
20260506175929 22 32 4.8 12.9 0.00 0.00 0.00 59 1011.9
20260506175429 22 76 4.8 12.9 0.00 0.00 0.00 58 1011.9
20260506174930 21 345 4.8 12.9 0.00 0.00 0.00 59 1011.8
20260506174431 21 325 6.4 16.1 0.00 0.00 0.00 58 1011.9
20260506174214 21 83 6.4 17.7 0.00 0.00 0.00 60 1012.0
20260506173424 21 42 6.4 17.7 0.00 0.00 0.00 60 1012.1
20260506172925 21 69 6.4 16.1 0.00 0.00 0.00 59 1012.1
20260506172424 20 61 8.0 16.1 0.00 0.00 0.00 60 1012.1
20260506171924 20 86 8.0 16.1 0.00 0.00 0.00 61 1012.1
20260506171424 20 111 8.0 19.3 0.00 0.00 0.00 61 1012.1
20260506170924 20 103 8.0 20.9 0.00 0.00 0.00 61 1012.0
20260506170419 19 58 8.0 20.9 0.00 0.00 0.00 61 1012.2
20260506165921 19 74 8.0 20.9 0.00 0.00 0.00 62 1012.3
20260506165421 18 0 9.7 20.9 0.00 0.00 0.00 63 1012.4
20260506164920 18 0 9.7 20.9 0.00 0.00 0.00 64 1012.6
20260506164421 18 91 6.4 17.7 0.00 0.00 0.00 67 1012.9
20260506163921 17 85 6.4 17.7 0.00 0.00 0.00 67 1013.2
20260506163415 17 9 8.0 17.7 0.00 0.00 0.00 68 1013.4
20260506162916 16 25 9.7 25.7 0.00 0.00 0.00 68 1013.5
20260506162658 16 338 9.7 25.7 0.00 0.00 0.00 68 1013.4
20260506161916 16 23 8.0 24.1 0.00 0.00 0.00 67 1013.7
20260506161416 17 355 9.7 24.1 0.00 0.00 0.00 67 1014.1
20260506160917 17 9 9.7 27.4 0.00 0.00 0.00 67 1014.0
20260506160412 17 319 8.0 27.4 0.00 0.00 0.00 67 1013.7
20260506155913 17 355 8.0 24.1 0.00 0.00 0.00 67 1013.8
20260506155413 18 55 8.0 24.1 0.00 0.00 0.00 67 1013.9
20260506154911 18 0 9.7 25.7 0.00 0.00 0.00 66 1013.6
20260506154411 18 0 9.7 25.7 0.00 0.00 0.00 66 1013.4
20260506153912 19 40 8.0 17.7 0.00 0.00 0.00 65 1013.4
20260506153407 19 321 8.0 19.3 0.00 0.00 0.00 65 1013.0
20260506152909 19 15 11.3 25.7 0.00 0.00 0.00 65 1012.5
20260506152407 20 0 11.3 25.7 0.00 0.00 0.00 64 1012.3
20260506151908 20 43 9.7 24.1 0.00 0.00 0.00 63 1012.3
20260506151409 21 311 8.0 24.1 0.00 0.00 0.00 61 1012.3
20260506150908 23 303 4.8 16.1 0.00 0.00 0.00 61 1012.0
20260506150403 25 51 3.2 6.4 0.00 0.00 0.00 65 1011.6
20260506145904 25 92 3.2 6.4 0.00 0.00 0.00 65 1011.4
20260506145643 25 123 1.6 6.4 0.00 0.00 0.00 64 1011.2
20260506144905 25 109 3.2 6.4 0.00 0.00 0.00 64 1011.0
20260506144404 25 116 3.2 8.0 0.00 0.00 0.00 65 1010.9
20260506143904 25 111 4.8 11.3 0.00 0.00 0.00 65 1010.9
20260506143401 25 139 4.8 11.3 0.00 0.00 0.00 65 1010.8
20260506142902 25 134 4.8 9.7 0.00 0.00 0.00 65 1010.7
20260506142359 25 130 3.2 9.7 0.00 0.00 0.00 66 1010.5
20260506141859 25 123 4.8 9.7 0.00 0.00 0.00 66 1010.3
20260506141355 25 119 1.6 9.7 0.00 0.00 0.00 67 1010.4
20260506140852 25 153 0.0 4.8 0.00 0.00 0.00 67 1010.7
20260506140636 24 122 1.6 4.8 0.00 0.00 0.00 68 1010.8
20260506135852 24 122 0.0 4.8 0.00 0.00 0.00 68 1010.7
20260506135346 24 122 0.0 4.8 0.00 0.00 0.00 69 1010.4
20260506134845 24 122 1.6 4.8 0.00 0.00 0.00 69 1010.2
20260506134626 24 122 1.6 4.8 0.00 0.00 0.00 69 1010.1
20260506133846 24 121 1.6 4.8 0.00 0.00 0.00 69 1010.1
20260506133346 24 122 1.6 6.4 0.00 0.00 0.00 69 1010.1
20260506132846 24 119 1.6 6.4 0.00 0.00 0.00 70 1010.0
20260506132342 23 130 1.6 4.8 0.00 0.00 0.00 70 1010.0
20260506132120 23 131 1.6 6.4 0.00 0.00 0.00 70 1010.0
20260506131341 23 156 1.6 6.4 0.00 0.00 0.00 70 1010.0
20260506130842 23 161 1.6 6.4 0.00 0.00 0.00 70 1010.1
20260506130340 23 162 1.6 6.4 0.00 0.00 0.00 70 1009.9
20260506125840 23 164 0.0 3.2 0.00 0.00 0.00 70 1009.8
20260506125613 23 164 0.0 3.2 0.00 0.00 0.00 70 1009.8
20260506124832 23 0 0.0 3.2 0.00 0.00 0.00 70 1009.8
20260506124330 23 0 0.0 3.2 0.00 0.00 0.00 70 1009.8
20260506123828 23 0 0.0 1.6 0.00 0.00 0.00 70 1009.7
20260506123329 23 0 0.0 3.2 0.00 0.00 0.00 70 1009.7
20260506122827 23 164 0.0 4.8 0.00 0.00 0.00 70 1009.8
20260506122325 23 164 0.0 4.8 0.00 0.00 0.00 70 1009.7
20260506121824 23 164 0.0 1.6 0.00 0.00 0.00 70 1009.8
20260506121347 23 0 0.0 3.2 0.00 0.00 0.00 70 1009.7
20260506121339 23 0 0.0 3.2 0.00 0.00 0.00 70 1009.6
20260506120322 23 164 0.0 3.2 0.00 0.00 0.00 70 1009.6
20260506115816 23 164 0.0 6.4 0.00 0.00 0.00 70 1009.5
20260506115314 23 164 1.6 6.4 0.00 0.00 0.00 70 1009.6
20260506114812 23 164 1.6 6.4 0.00 0.00 0.00 70 1009.4
20260506114311 23 167 0.0 4.8 0.00 0.00 0.00 70 1009.5
20260506113809 23 167 0.0 0.0 0.00 0.00 0.00 70 1009.6
20260506113304 23 167 0.0 0.0 0.00 0.00 0.00 70 1009.6
20260506112803 23 167 0.0 0.0 0.00 0.00 0.00 69 1009.5
20260506112300 23 167 0.0 4.8 0.00 0.00 0.00 69 1009.5
20260506111758 23 167 1.6 8.0 0.00 0.00 0.00 69 1009.5
20260506111538 23 167 1.6 8.0 0.00 0.00 0.00 69 1009.6
20260506110752 23 162 0.0 6.4 0.00 0.00 0.00 69 1009.6
20260506110250 23 169 0.0 3.2 0.00 0.00 0.00 69 1009.5
20260506105748 23 169 0.0 3.2 0.00 0.00 0.00 69 1009.6
20260506105247 23 170 0.0 0.0 0.00 0.00 0.00 69 1009.4
20260506104746 23 170 0.0 3.2 0.00 0.00 0.00 69 1009.3
20260506104521 23 170 0.0 6.4 0.00 0.00 0.00 69 1009.3
20260506103744 23 171 1.6 6.4 0.00 0.00 0.00 69 1009.1
20260506103245 23 182 1.6 6.4 0.00 0.00 0.00 69 1009.2
20260506102743 23 170 0.0 6.4 0.00 0.00 0.00 69 1009.1
20260506102240 23 168 1.6 6.4 0.00 0.00 0.00 69 1009.2
20260506101740 23 167 1.6 6.4 0.00 0.00 0.00 69 1009.2
20260506101237 23 216 1.6 8.0 0.00 0.00 0.00 69 1009.1
20260506100737 23 218 1.6 8.0 0.00 0.00 0.00 69 1009.1
20260506100238 23 154 3.2 9.7 0.00 0.00 0.00 69 1009.1
20260506095736 23 167 3.2 9.7 0.00 0.00 0.00 69 1008.9
20260506095234 23 154 4.8 9.7 0.00 0.00 0.00 69 1008.8
20260506094735 23 167 3.2 9.7 0.00 0.00 0.00 69 1008.7
20260506094232 23 157 1.6 8.0 0.00 0.00 0.00 69 1008.7
20260506093730 23 166 3.2 8.0 0.00 0.00 0.00 69 1008.7
20260506093227 23 179 3.2 8.0 0.00 0.00 0.00 69 1008.7
20260506092728 23 150 3.2 8.0 0.00 0.00 0.00 69 1008.7
20260506092229 23 147 1.6 6.4 0.00 0.00 0.00 69 1008.6
20260506091728 23 146 1.6 9.7 0.00 0.00 0.00 69 1008.5
20260506091224 23 167 1.6 9.7 0.00 0.00 0.00 69 1008.3
20260506090724 23 136 3.2 9.7 0.00 0.00 0.00 69 1008.3
20260506090223 23 159 3.2 9.7 0.00 0.00 0.00 69 1008.3
20260506085722 23 167 3.2 9.7 0.00 0.00 0.00 69 1008.5
20260506085222 23 167 3.2 9.7 0.00 0.00 0.00 69 1008.3
20260506084721 23 219 4.8 14.5 0.00 0.00 0.00 69 1008.1
20260506084220 23 173 4.8 14.5 0.00 0.00 0.00 69 1008.2
20260506083719 23 161 4.8 14.5 0.00 0.00 0.00 69 1008.2
20260506083219 23 192 4.8 14.5 0.00 0.00 0.00 69 1008.1
20260506082718 23 157 3.2 14.5 0.00 0.00 0.00 69 1008.2
20260506082453 23 136 3.2 11.3 0.00 0.00 0.00 69 1008.1
20260506081717 23 161 4.8 11.3 0.00 0.00 0.00 69 1008.1
20260506081214 23 184 4.8 11.3 0.00 0.00 0.00 69 1008.1
20260506080712 23 187 4.8 14.5 0.00 0.00 0.00 69 1008.2
20260506080452 23 163 4.8 14.5 0.00 0.00 0.00 69 1008.2
20260506073205 23 148 4.8 16.1 0.00 0.00 0.00 69 1008.4
20260506072947 23 148 6.4 16.1 0.00 0.00 0.00 69 1008.3
20260506072204 23 219 6.4 16.1 0.00 0.00 0.00 69 1008.5
20260506071704 23 236 6.4 17.7 0.00 0.00 0.00 69 1008.5
20260506071158 23 183 6.4 17.7 0.00 0.00 0.00 69 1008.6
20260506070658 23 145 8.0 16.1 0.00 0.00 0.00 69 1008.6
20260506070156 23 170 6.4 16.1 0.00 0.00 0.00 69 1008.7
20260506062152 24 174 6.4 14.5 0.00 0.00 0.00 68 1008.5
20260506061652 24 167 6.4 16.1 0.00 0.00 0.00 68 1008.4
20260506061147 24 153 6.4 16.1 0.00 0.00 0.00 68 1008.5
20260506060647 24 150 4.8 12.9 0.00 0.00 0.00 68 1008.5
20260506060147 24 169 6.4 12.9 0.00 0.00 0.00 68 1008.6
20260506051139 24 172 6.4 17.7 0.00 0.00 0.00 68 1008.6
20260506050640 24 171 6.4 16.1 0.00 0.00 0.00 68 1008.6
20260506050213 24 172 8.0 17.7 0.00 0.00 0.00 68 1008.9
20260506050202 24 165 8.0 17.7 0.00 0.00 0.00 68 1008.9
20260506045134 24 152 8.0 17.7 0.00 0.00 0.00 68 1008.8
20260506044633 24 165 6.4 14.5 0.00 0.00 0.00 68 1008.7
20260506044133 24 155 6.4 14.5 0.00 0.00 0.00 68 1008.8
20260506043632 24 148 4.8 14.5 0.00 0.00 0.00 68 1008.8
20260506043415 24 143 4.8 11.3 0.00 0.00 0.00 68 1008.8
20260506042633 24 157 4.8 11.3 0.00 0.00 0.00 68 1008.7
20260506042133 24 147 3.2 11.3 0.00 0.00 0.00 68 1008.6
20260506041631 24 169 3.2 11.3 0.00 0.00 0.00 68 1008.6
20260506041154 24 150 4.8 11.3 0.00 0.00 0.00 67 1008.5
20260506041146 24 158 4.8 9.7 0.00 0.00 0.00 67 1008.7
20260506040130 24 146 4.8 12.9 0.00 0.00 0.00 67 1008.4
20260506035632 24 174 6.4 12.9 0.00 0.00 0.00 67 1008.3
20260506035130 24 178 6.4 12.9 0.00 0.00 0.00 67 1008.3
20260506034630 25 169 6.4 12.9 0.00 0.00 0.00 67 1008.3
20260506034125 24 153 4.8 12.9 0.00 0.00 0.00 67 1008.3
20260506033624 24 171 4.8 12.9 0.00 0.00 0.00 67 1008.4
20260506033124 25 162 4.8 12.9 0.00 0.00 0.00 67 1008.2
20260506032626 25 173 4.8 11.3 0.00 0.00 0.00 67 1008.1
20260506032122 25 159 4.8 11.3 0.00 0.00 0.00 67 1008.1
20260506031622 25 156 4.8 11.3 0.00 0.00 0.00 67 1008.1
20260506031401 25 158 4.8 11.3 0.00 0.00 0.00 66 1007.9
20260506030902 25 148 4.8 11.3 0.00 0.00 0.00 66 1008.0
20260506030120 25 143 4.8 11.3 0.00 0.00 0.00 66 1008.0
20260506025619 25 150 4.8 9.7 0.00 0.00 0.00 66 1007.7
20260506025118 25 0 4.8 14.5 0.00 0.00 0.00 66 1007.7
20260506024620 25 0 6.4 14.5 0.00 0.00 0.00 66 1007.7
20260506024119 25 0 4.8 12.9 0.00 0.00 0.00 66 1007.5
20260506023620 25 0 4.8 12.9 0.00 0.00 0.00 66 1007.4
20260506023353 25 0 4.8 12.9 0.00 0.00 0.00 66 1007.3
20260506022615 25 0 4.8 9.7 0.00 0.00 0.00 65 1007.2
20260506022114 25 0 4.8 12.9 0.00 0.00 0.00 65 1007.1
20260506021615 25 0 4.8 12.9 0.00 0.00 0.00 65 1007.1
20260506021113 25 0 6.4 14.5 0.00 0.00 0.00 64 1006.9
20260506020613 25 0 4.8 14.5 0.00 0.00 0.00 64 1006.8
20260506020112 25 0 4.8 12.9 0.00 0.00 0.00 64 1006.7
20260506015609 26 0 3.2 12.9 0.00 0.00 0.00 63 1006.8
20260506015109 26 0 3.2 8.0 0.00 0.00 0.00 63 1006.8
20260506014607 26 123 3.2 9.7 0.00 0.00 0.00 62 1006.7
20260506014347 26 155 4.8 9.7 0.00 0.00 0.00 62 1006.7
20260506013607 26 157 3.2 9.7 0.00 0.00 0.00 61 1006.7
20260506013104 26 155 3.2 8.0 0.00 0.00 0.00 61 1006.7
20260506012604 26 153 3.2 9.7 0.00 0.00 0.00 61 1006.8
20260506012128 27 142 3.2 8.0 0.00 0.00 0.00 59 1006.7
20260506012120 27 159 3.2 9.7 0.00 0.00 0.00 60 1006.7
20260506011101 27 160 4.8 8.0 0.00 0.00 0.00 59 1006.6
20260506010840 27 156 4.8 9.7 0.00 0.00 0.00 59 1006.6
20260506010056 27 165 3.2 9.7 0.00 0.00 0.00 58 1006.6
20260506005837 27 167 1.6 8.0 0.00 0.00 0.00 58 1006.6
20260506005054 27 158 1.6 8.0 0.00 0.00 0.00 58 1006.6
20260506004555 27 173 1.6 9.7 0.00 0.00 0.00 58 1006.6
20260506004055 27 171 1.6 9.7 0.00 0.00 0.00 58 1006.5
20260506003554 27 182 0.0 6.4 0.00 0.00 0.00 58 1006.4
20260506003048 27 165 1.6 6.4 0.00 0.00 0.00 58 1006.5
20260506002547 27 164 1.6 9.7 0.00 0.00 0.00 58 1006.5
20260506002045 27 165 1.6 9.7 0.00 0.00 0.00 58 1006.5
20260506001543 27 179 3.2 11.3 0.00 0.00 0.00 57 1006.4
20260506001043 27 148 3.2 11.3 0.00 0.00 0.00 57 1006.4
20260506000541 27 171 3.2 9.7 0.00 0.00 0.00 57 1006.4
20260506000038 28 140 4.8 16.1 0.00 0.00 0.00 57 1006.3
20260505235817 28 148 4.8 16.1 0.00 0.00 0.00 56 1006.3
20260505235037 28 154 4.8 16.1 0.00 0.00 0.00 56 1006.1
20260505234817 28 169 6.4 14.5 0.00 0.00 0.00 56 1006.1
20260505234036 28 188 6.4 17.7 0.00 0.00 0.00 56 1006.0
20260505233530 28 146 6.4 17.7 0.00 0.00 0.00 56 1006.1
20260505233031 28 180 6.4 12.9 0.00 0.00 0.00 56 1006.0
20260505232807 28 152 6.4 14.5 0.00 0.00 0.00 56 1006.0
20260505232032 28 160 8.0 17.7 0.00 0.00 0.00 56 1006.1
20260505231531 28 234 8.0 17.7 0.00 0.00 0.00 56 1006.0
20260505231032 28 150 8.0 17.7 0.00 0.00 0.00 55 1006.2
20260505230528 28 150 8.0 17.7 0.00 0.00 0.00 55 1006.0
20260505230310 28 182 4.8 17.7 0.00 0.00 0.00 55 1005.9
20260505225529 28 143 6.4 12.9 0.00 0.00 0.00 55 1006.0
20260505225051 28 154 6.4 16.1 0.00 0.00 0.00 54 1005.9
20260505225045 28 209 6.4 12.9 0.00 0.00 0.00 54 1005.9
20260505224029 28 0 6.4 16.1 0.00 0.00 0.00 54 1005.9
20260505223529 28 161 8.0 17.7 0.00 0.00 0.00 55 1005.9
20260505223043 28 174 9.7 22.5 0.00 0.00 0.00 54 1005.9
20260505223037 28 184 8.0 17.7 0.00 0.00 0.00 54 1006.0
20260505222020 28 173 8.0 22.5 0.00 0.00 0.00 54 1006.0
20260505221519 28 161 6.4 17.7 0.00 0.00 0.00 55 1006.1
20260505221021 28 175 8.0 17.7 0.00 0.00 0.00 55 1006.1
20260505220521 28 165 8.0 17.7 0.00 0.00 0.00 54 1006.1
20260505220019 28 170 6.4 17.7 0.00 0.00 0.00 53 1006.1
20260505215517 28 227 6.4 14.5 0.00 0.00 0.00 56 1006.3
20260505215016 28 216 6.4 12.9 0.00 0.00 0.00 54 1006.4
20260505214516 28 217 4.8 19.3 0.00 0.00 0.00 56 1006.4
20260505214257 28 187 4.8 19.3 0.00 0.00 0.00 55 1006.4
20260505213756 28 178 4.8 14.5 0.00 0.00 0.00 55 1006.3
20260505213009 28 171 4.8 14.5 0.00 0.00 0.00 55 1006.5
20260505212752 28 202 6.4 16.1 0.00 0.00 0.00 56 1006.7
20260505212008 28 188 8.0 16.1 0.00 0.00 0.00 56 1006.8
20260505211508 28 132 6.4 16.1 0.00 0.00 0.00 56 1006.8
20260505211008 28 157 6.4 16.1 0.00 0.00 0.00 56 1006.6
20260505210508 28 166 6.4 19.3 0.00 0.00 0.00 55 1006.9
20260505210009 28 183 6.4 19.3 0.00 0.00 0.00 56 1007.0
20260505205503 28 228 6.4 16.1 0.00 0.00 0.00 54 1007.1
20260505205003 28 158 6.4 16.1 0.00 0.00 0.00 55 1006.9
20260505204502 28 145 6.4 19.3 0.00 0.00 0.00 56 1007.0
20260505204001 28 153 8.0 19.3 0.00 0.00 0.00 55 1007.0
20260505203501 27 188 8.0 17.7 0.00 0.00 0.00 56 1007.2
20260505203003 27 191 8.0 22.5 0.00 0.00 0.00 56 1007.2
20260505202459 27 225 8.0 22.5 0.00 0.00 0.00 56 1007.3
20260505202000 27 210 6.4 17.7 0.00 0.00 0.00 57 1007.4
20260505201501 27 167 6.4 19.3 0.00 0.00 0.00 58 1007.5
20260505201001 27 166 6.4 19.3 0.00 0.00 0.00 57 1007.6
20260505200500 27 216 4.8 12.9 0.00 0.00 0.00 57 1007.7
20260505200001 27 175 4.8 12.9 0.00 0.00 0.00 58 1007.7
20260505195500 27 165 4.8 14.5 0.00 0.00 0.00 58 1008.0
20260505194955 27 175 4.8 14.5 0.00 0.00 0.00 58 1008.1
20260505194456 27 213 6.4 16.1 0.00 0.00 0.00 59 1008.1
20260505193956 26 195 6.4 16.1 0.00 0.00 0.00 59 1008.1
20260505193455 26 132 4.8 16.1 0.00 0.00 0.00 59 1008.2
20260505192955 26 153 4.8 16.1 0.00 0.00 0.00 59 1008.2
20260505192455 27 165 6.4 17.7 0.00 0.00 0.00 59 1008.2
20260505191958 26 182 6.4 17.7 0.00 0.00 0.00 59 1008.4
20260505191457 26 197 6.4 16.1 0.00 0.00 0.00 59 1008.2
20260505190957 26 165 6.4 16.1 0.00 0.00 0.00 60 1008.3
20260505190455 26 198 6.4 19.3 0.00 0.00 0.00 60 1008.4
20260505190237 26 169 6.4 19.3 0.00 0.00 0.00 61 1008.4
20260505185452 26 132 6.4 14.5 0.00 0.00 0.00 60 1008.4
20260505185232 26 160 6.4 14.5 0.00 0.00 0.00 61 1008.5